International Skating Union - Official Site

Essent ISU World Cup Berlin
November 6-8, 2009

Draw | Lap Times | Index | World Cup

Referee: Hannu  KOIVU  (FIN)
Starter: Marcel Lesche  VANBERG  (NOR)
StartTime: EndTime: Air Temp: Ice Temp: Humidity:
10:00 11:34 13.9℃ -5.1℃ 33%
Result 5000m Men Division B
Rankings as of Nov 30 2009 10:30PM
Rank: No.: Name: Nation: Time: Behind: Points:
1 42 Alexis  CONTIN FRA FRA 6:22.38200m - 19.28 - (19.2)
600m - 49.57 - (30.2)
1000m - 1:20.35 - (30.7)
1400m - 1:50.68 - (30.3)
1800m - 2:21.06 - (30.3)
2200m - 2:51.30 - (30.2)
2600m - 3:21.38 - (30.0)
3000m - 3:51.54 - (30.1)
3400m - 4:21.45 - (29.9)
3800m - 4:51.40 - (29.9)
4200m - 5:21.71 - (30.3)
4600m - 5:52.03 - (30.3)
5000m - 6:22.38 - (30.3)
25
2 125 Shane  DOBBIN NZL NZL 6:24.88200m - 19.30 - (19.3)
600m - 48.79 - (29.4)
1000m - 1:19.18 - (30.3)
1400m - 1:49.88 - (30.6)
1800m - 2:21.28 - (31.4)
2200m - 2:51.97 - (30.6)
2600m - 3:22.51 - (30.5)
3000m - 3:52.71 - (30.2)
3400m - 4:23.03 - (30.3)
3800m - 4:53.32 - (30.2)
4200m - 5:23.77 - (30.4)
4600m - 5:54.22 - (30.4)
5000m - 6:24.88 - (30.6)
2.50 19
3 19 Mathieu  GIROUX CAN CAN 6:29.30200m - 19.27 - (19.2)
600m - 49.38 - (30.1)
1000m - 1:19.83 - (30.4)
1400m - 1:50.00 - (30.1)
1800m - 2:20.26 - (30.2)
2200m - 2:50.68 - (30.4)
2600m - 3:21.12 - (30.4)
3000m - 3:51.62 - (30.5)
3400m - 4:22.44 - (30.8)
3800m - 4:53.55 - (31.1)
4200m - 5:24.93 - (31.3)
4600m - 5:56.79 - (31.8)
5000m - 6:29.30 - (32.5)
6.92 15
4 97 Seung-Hoon  LEE KOR KOR 6:29.99200m - 19.32 - (19.3)
600m - 48.80 - (29.4)
1000m - 1:18.48 - (29.6)
1400m - 1:48.18 - (29.7)
1800m - 2:17.83 - (29.6)
2200m - 2:47.75 - (29.9)
2600m - 3:17.78 - (30.0)
3000m - 3:48.15 - (30.3)
3400m - 4:19.10 - (30.9)
3800m - 4:50.52 - (31.4)
4200m - 5:22.85 - (32.3)
4600m - 5:55.86 - (33.0)
5000m - 6:29.99 - (34.1)
7.61 11
5 56 Tobias  SCHNEIDER GER GER 6:30.54200m - 19.61 - (19.6)
600m - 49.96 - (30.3)
1000m - 1:20.89 - (30.9)
1400m - 1:51.56 - (30.6)
1800m - 2:22.49 - (30.9)
2200m - 2:53.60 - (31.1)
2600m - 3:24.90 - (31.3)
3000m - 3:55.98 - (31.0)
3400m - 4:26.29 - (30.3)
3800m - 4:56.75 - (30.4)
4200m - 5:27.71 - (30.9)
4600m - 5:58.85 - (31.1)
5000m - 6:30.54 - (31.6)
8.16 8
6 158 Ryan  BEDFORD USA USA 6:31.49200m - 19.31 - (19.3)
600m - 49.61 - (30.3)
1000m - 1:20.73 - (31.1)
1400m - 1:51.39 - (30.6)
1800m - 2:22.29 - (30.9)
2200m - 2:53.24 - (30.9)
2600m - 3:24.16 - (30.9)
3000m - 3:55.21 - (31.0)
3400m - 4:26.36 - (31.1)
3800m - 4:57.66 - (31.3)
4200m - 5:29.18 - (31.5)
4600m - 6:00.41 - (31.2)
5000m - 6:31.49 - (31.0)
9.11 6
7 64 Matteo  ANESI ITA ITA 6:32.41200m - 19.41 - (19.4)
600m - 50.15 - (30.7)
1000m - 1:20.53 - (30.3)
1400m - 1:50.99 - (30.4)
1800m - 2:21.21 - (30.2)
2200m - 2:51.71 - (30.5)
2600m - 3:22.17 - (30.4)
3000m - 3:52.49 - (30.3)
3400m - 4:23.00 - (30.5)
3800m - 4:53.99 - (30.9)
4200m - 5:25.93 - (31.9)
4600m - 5:58.83 - (32.9)
5000m - 6:32.41 - (33.5)
10.03 4
8 159 Brian  HANSEN USA USA 6:33.50200m - 19.55 - (19.5)
600m - 49.68 - (30.1)
1000m - 1:20.57 - (30.8)
1400m - 1:50.97 - (30.4)
1800m - 2:21.49 - (30.5)
2200m - 2:52.30 - (30.8)
2600m - 3:23.23 - (30.9)
3000m - 3:54.08 - (30.8)
3400m - 4:25.31 - (31.2)
3800m - 4:57.23 - (31.9)
4200m - 5:29.08 - (31.8)
4600m - 6:01.39 - (32.3)
5000m - 6:33.50 - (32.1)
11.12 2
9 12 Jordan  BELCHOS CAN CAN 6:34.51200m - 19.25 - (19.2)
600m - 48.80 - (29.5)
1000m - 1:18.52 - (29.7)
1400m - 1:49.17 - (30.6)
1800m - 2:20.04 - (30.8)
2200m - 2:51.20 - (31.1)
2600m - 3:22.51 - (31.3)
3000m - 3:54.00 - (31.4)
3400m - 4:25.67 - (31.6)
3800m - 4:57.66 - (31.9)
4200m - 5:29.86 - (32.1)
4600m - 6:02.18 - (32.3)
5000m - 6:34.51 - (32.3)
12.13 1
10 138 Aleksandr  RUMYANTSEV RUS RUS 6:35.05200m - 19.60 - (19.6)
600m - 50.55 - (30.9)
1000m - 1:21.63 - (31.0)
1400m - 1:52.39 - (30.7)
1800m - 2:23.00 - (30.6)
2200m - 2:53.94 - (30.9)
2600m - 3:24.95 - (31.0)
3000m - 3:55.77 - (30.8)
3400m - 4:27.00 - (31.2)
3800m - 4:58.45 - (31.4)
4200m - 5:30.62 - (32.1)
4600m - 6:03.01 - (32.3)
5000m - 6:35.05 - (32.0)
12.67 0
11 79 Shigeyuki  DEJIMA JPN JPN 6:35.24200m - 19.59 - (19.5)
600m - 49.97 - (30.3)
1000m - 1:21.22 - (31.2)
1400m - 1:52.55 - (31.3)
1800m - 2:24.40 - (31.8)
2200m - 2:55.89 - (31.4)
2600m - 3:27.36 - (31.4)
3000m - 3:58.54 - (31.1)
3400m - 4:29.83 - (31.2)
3800m - 5:00.83 - (31.0)
4200m - 5:31.94 - (31.1)
4600m - 6:03.71 - (31.7)
5000m - 6:35.24 - (31.5)
12.86 0
12 67 Luca  STEFANI ITA ITA 6:35.36200m - 19.21 - (19.2)
600m - 49.37 - (30.1)
1000m - 1:19.84 - (30.4)
1400m - 1:50.84 - (31.0)
1800m - 2:21.78 - (30.9)
2200m - 2:52.86 - (31.0)
2600m - 3:24.07 - (31.2)
3000m - 3:55.71 - (31.6)
3400m - 4:27.38 - (31.6)
3800m - 4:59.33 - (31.9)
4200m - 5:31.37 - (32.0)
4600m - 6:03.34 - (31.9)
5000m - 6:35.36 - (32.0)
12.98 0
13 11 Steven  ELM CAN CAN 6:35.62200m - 19.87 - (19.8)
600m - 51.15 - (31.2)
1000m - 1:22.46 - (31.3)
1400m - 1:53.65 - (31.1)
1800m - 2:24.84 - (31.1)
2200m - 2:56.14 - (31.3)
2600m - 3:27.45 - (31.3)
3000m - 3:58.67 - (31.2)
3400m - 4:29.87 - (31.2)
3800m - 5:01.13 - (31.2)
4200m - 5:32.45 - (31.3)
4600m - 6:03.86 - (31.4)
5000m - 6:35.62 - (31.7)
13.24 0
14 129 Sebastian  DRUSZKIEWICZ POL POL 6:36.46200m - 19.43 - (19.4)
600m - 50.16 - (30.7)
1000m - 1:21.23 - (31.0)
1400m - 1:52.54 - (31.3)
1800m - 2:23.83 - (31.2)
2200m - 2:55.40 - (31.5)
2600m - 3:26.77 - (31.3)
3000m - 3:58.07 - (31.3)
3400m - 4:29.40 - (31.3)
3800m - 5:01.12 - (31.7)
4200m - 5:32.97 - (31.8)
4600m - 6:04.91 - (31.9)
5000m - 6:36.46 - (31.5)
14.08 0
15 5 Kris  SCHILDERMANS BEL BEL 6:37.17200m - 19.42 - (19.4)
600m - 49.47 - (30.0)
1000m - 1:19.77 - (30.3)
1400m - 1:50.50 - (30.7)
1800m - 2:21.04 - (30.5)
2200m - 2:52.47 - (31.4)
2600m - 3:23.83 - (31.3)
3000m - 3:55.49 - (31.6)
3400m - 4:27.20 - (31.7)
3800m - 4:59.31 - (32.1)
4200m - 5:31.70 - (32.3)
4600m - 6:04.55 - (32.8)
5000m - 6:37.17 - (32.6)
14.79 0
16 80 Masashi  MICHISHITA JPN JPN 6:37.37200m - 19.64 - (19.6)
600m - 49.76 - (30.1)
1000m - 1:20.79 - (31.0)
1400m - 1:51.35 - (30.5)
1800m - 2:22.11 - (30.7)
2200m - 2:52.94 - (30.8)
2600m - 3:23.98 - (31.0)
3000m - 3:55.21 - (31.2)
3400m - 4:27.12 - (31.9)
3800m - 4:59.96 - (32.8)
4200m - 5:32.73 - (32.7)
4600m - 6:04.97 - (32.2)
5000m - 6:37.37 - (32.4)
14.99 0
17 8 Jay  MORRISON CAN CAN 6:38.44200m - 19.31 - (19.3)
600m - 50.02 - (30.7)
1000m - 1:21.20 - (31.1)
1400m - 1:52.73 - (31.5)
1800m - 2:24.22 - (31.4)
2200m - 2:55.58 - (31.3)
2600m - 3:26.77 - (31.1)
3000m - 3:58.21 - (31.4)
3400m - 4:29.65 - (31.4)
3800m - 5:01.13 - (31.4)
4200m - 5:32.66 - (31.5)
4600m - 6:05.46 - (32.8)
5000m - 6:38.44 - (32.9)
16.06 0
18 131 Roland  CIESLAK POL POL 6:39.44200m - 20.60 - (20.6)
600m - 51.30 - (30.7)
1000m - 1:22.16 - (30.8)
1400m - 1:53.34 - (31.1)
1800m - 2:25.19 - (31.8)
2200m - 2:56.94 - (31.7)
2600m - 3:28.73 - (31.7)
3000m - 3:59.87 - (31.1)
3400m - 4:30.94 - (31.0)
3800m - 5:02.15 - (31.2)
4200m - 5:33.99 - (31.8)
4600m - 6:06.57 - (32.5)
5000m - 6:39.44 - (32.8)
17.06 0
19 66 Marco  CIGNINI ITA ITA 6:44.21200m - 19.08 - (19.0)
600m - 49.64 - (30.5)
1000m - 1:21.33 - (31.6)
1400m - 1:52.97 - (31.6)
1800m - 2:24.47 - (31.5)
2200m - 2:56.09 - (31.6)
2600m - 3:28.07 - (31.9)
3000m - 3:59.93 - (31.8)
3400m - 4:31.96 - (32.0)
3800m - 5:03.94 - (31.9)
4200m - 5:36.74 - (32.8)
4600m - 6:10.17 - (33.4)
5000m - 6:44.21 - (34.0)
21.83 0
20 2 Joshua  LOSE AUS AUS 6:44.24200m - 19.80 - (19.8)
600m - 50.76 - (30.9)
1000m - 1:22.09 - (31.3)
1400m - 1:53.78 - (31.6)
1800m - 2:25.79 - (32.0)
2200m - 2:57.82 - (32.0)
2600m - 3:29.86 - (32.0)
3000m - 4:02.07 - (32.2)
3400m - 4:34.31 - (32.2)
3800m - 5:06.56 - (32.2)
4200m - 5:39.01 - (32.4)
4600m - 6:11.62 - (32.6)
5000m - 6:44.24 - (32.6)
21.86 0
21 32 Pavel  KULMA CZE CZE 6:45.02200m - 19.47 - (19.4)
600m - 49.95 - (30.4)
1000m - 1:20.74 - (30.7)
1400m - 1:51.97 - (31.2)
1800m - 2:23.58 - (31.6)
2200m - 2:55.38 - (31.7)
2600m - 3:27.58 - (32.2)
3000m - 3:59.76 - (32.1)
3400m - 4:32.17 - (32.4)
3800m - 5:05.07 - (32.9)
4200m - 5:38.22 - (33.1)
4600m - 6:11.90 - (33.6)
5000m - 6:45.02 - (33.1)
22.64 0
22 4 Christian  PICHLER AUT AUT 6:47.41200m - 20.28 - (20.2)
600m - 50.53 - (30.2)
1000m - 1:21.58 - (31.0)
1400m - 1:54.13 - (32.5)
1800m - 2:25.96 - (31.8)
2200m - 2:57.83 - (31.8)
2600m - 3:29.63 - (31.8)
3000m - 4:01.81 - (32.1)
3400m - 4:33.97 - (32.1)
3800m - 5:06.60 - (32.6)
4200m - 5:39.85 - (33.2)
4600m - 6:13.54 - (33.6)
5000m - 6:47.41 - (33.8)
25.03 0
23 28 Xin  JIN CHN CHN 6:48.16200m - 20.29 - (20.2)
600m - 51.37 - (31.0)
1000m - 1:22.01 - (30.6)
1400m - 1:53.44 - (31.4)
1800m - 2:24.96 - (31.5)
2200m - 2:57.14 - (32.1)
2600m - 3:29.57 - (32.4)
3000m - 4:02.04 - (32.4)
3400m - 4:34.62 - (32.5)
3800m - 5:07.56 - (32.9)
4200m - 5:40.99 - (33.4)
4600m - 6:14.82 - (33.8)
5000m - 6:48.16 - (33.3)
25.78 0
24 30 Yue  CHENG CHN CHN 6:48.99200m - 19.97 - (19.9)
600m - 51.19 - (31.2)
1000m - 1:23.15 - (31.9)
1400m - 1:55.32 - (32.1)
1800m - 2:27.63 - (32.3)
2200m - 3:00.30 - (32.6)
2600m - 3:33.17 - (32.8)
3000m - 4:06.06 - (32.8)
3400m - 4:38.60 - (32.5)
3800m - 5:11.19 - (32.5)
4200m - 5:44.01 - (32.8)
4600m - 6:16.61 - (32.6)
5000m - 6:48.99 - (32.3)
26.61 0
25 134 Marian Cristian  ION ROU ROU 6:51.24200m - 20.20 - (20.2)
600m - 52.14 - (31.9)
1000m - 1:24.48 - (32.3)
1400m - 1:56.46 - (31.9)
1800m - 2:28.76 - (32.3)
2200m - 3:01.09 - (32.3)
2600m - 3:33.93 - (32.8)
3000m - 4:06.47 - (32.5)
3400m - 4:39.15 - (32.6)
3800m - 5:12.04 - (32.8)
4200m - 5:45.31 - (33.2)
4600m - 6:18.34 - (33.0)
5000m - 6:51.24 - (32.9)
28.86 0
26 40 Niko  RÄSÄNEN FIN FIN 6:51.85200m - 19.77 - (19.7)
600m - 51.66 - (31.8)
1000m - 1:23.66 - (32.0)
1400m - 1:55.52 - (31.8)
1800m - 2:27.37 - (31.8)
2200m - 2:59.31 - (31.9)
2600m - 3:31.50 - (32.1)
3000m - 4:03.86 - (32.3)
3400m - 4:36.56 - (32.7)
3800m - 5:09.95 - (33.3)
4200m - 5:43.87 - (33.9)
4600m - 6:18.30 - (34.4)
5000m - 6:51.85 - (33.5)
29.47 0
27 7 Vitaly  MIKHAILOV BLR BLR 6:54.49200m - 19.53 - (19.5)
600m - 50.66 - (31.1)
1000m - 1:22.77 - (32.1)
1400m - 1:54.47 - (31.7)
1800m - 2:26.44 - (31.9)
2200m - 2:58.74 - (32.3)
2600m - 3:31.81 - (33.0)
3000m - 4:04.93 - (33.1)
3400m - 4:38.14 - (33.2)
3800m - 5:12.03 - (33.8)
4200m - 5:46.36 - (34.3)
4600m - 6:20.34 - (33.9)
5000m - 6:54.49 - (34.1)
5000m - 6:36.67 - (16.3)
32.11 0
28 145 Jan  CAFLISCH SUI SUI 6:57.37200m - 20.55 - (20.5)
600m - 52.74 - (32.1)
1000m - 1:24.99 - (32.2)
1400m - 1:57.31 - (32.3)
1800m - 2:29.88 - (32.5)
2200m - 3:02.31 - (32.4)
2600m - 3:35.12 - (32.8)
3000m - 4:08.09 - (32.9)
3400m - 4:41.21 - (33.1)
3800m - 5:14.68 - (33.4)
4200m - 5:48.60 - (33.9)
4600m - 6:22.71 - (34.1)
5000m - 6:57.37 - (34.6)
34.99 0
29 150 Ola  RÖJLER SWE SWE 6:58.06200m - 20.03 - (20.0)
600m - 52.04 - (32.0)
1000m - 1:23.96 - (31.9)
1400m - 1:56.23 - (32.2)
1800m - 2:28.66 - (32.4)
2200m - 3:01.35 - (32.6)
2600m - 3:34.50 - (33.1)
3000m - 4:07.76 - (33.2)
3400m - 4:41.24 - (33.4)
3800m - 5:15.02 - (33.7)
4200m - 5:49.00 - (33.9)
4600m - 6:23.26 - (34.2)
5000m - 6:58.06 - (34.8)
35.68 0
30 87 Yevgeny  NAZARENKO KAZ KAZ 7:01.04200m - 19.78 - (19.7)
600m - 51.38 - (31.6)
1000m - 1:23.75 - (32.3)
1400m - 1:56.90 - (33.1)
1800m - 2:30.30 - (33.4)
2200m - 3:03.89 - (33.5)
2600m - 3:37.15 - (33.2)
3000m - 4:10.61 - (33.4)
3400m - 4:44.12 - (33.5)
3800m - 5:17.54 - (33.4)
4200m - 5:51.51 - (33.9)
4600m - 6:26.01 - (34.5)
5000m - 7:01.04 - (35.0)
38.66 0